Home > Weather > Tampa > Past weeks

Flag for U.S.A. Weather for the Past 2 Weeks in Tampa, Florida, U.S.A.

Now
59 °F

Partly cloudy.


Feels Like: 57 °F
Forecast: 52 / 60 °F
Wind: 12 mph from Northwest

Location: Tampa, Peter O Knight Airport

Current Time: Feb 9, 2016 at 3:31:24 AM

Latest Report: Feb 9, 2016 at 2:35 AM


Visibility: 10 mi

Pressure: 29.96 "Hg

Humidity: 51%

Dew point: 41 °F

Location of TampaLocation

Historic Weather in Tampa — Graph

°F

Tampa Temperature Yesterday

Maximum temperature yesterday: 68 °F (at 3:15 PM)
Minimum temperature yesterday: 45 °F (at 5:55 AM)
Average temperature yesterday: 57 °F

High & Low Weather Summary for the Past Weeks

 TemperatureHumidityPressure
High84 °F (Feb 3, 1:15 PM)100% (Jan 27, 12:55 AM)30.32 "Hg (Jan 27, 12:55 AM)
Low41 °F (Jan 25, 2:35 AM)26% (Feb 5, 3:15 PM)29.75 "Hg (Jan 28, 3:15 PM)
Average63 °F78%30.08 "Hg
* Reported Jan 25 1:15 AM — Feb 9 1:55 AM, Tampa, Weather by CustomWeather, © 2016

Note: Actual official high and low records may vary slightly from our data, if they occured in-between our weather recording intervals... More about our weather records

Advertising

Tampa Weather History for the Previous 24 Hours

 ConditionsComfort  
Time TempWeatherWind HumidityBarometerVisibility
1:55 AM
Tue, Feb 9
61 °FPassing clouds.10 mph55%29.95 "Hg10 mi
1:15 AM61 °FPassing clouds.12 mph55%29.95 "Hg10 mi
12:55 AM61 °FMostly cloudy.17 mph59%29.95 "Hg10 mi
12:35 AM63 °FMostly cloudy.10 mph59%29.95 "Hg10 mi
11:55 PM
Mon, Feb 8
63 °FPartly cloudy.8 mph68%29.94 "Hg10 mi
11:35 PM66 °FPassing clouds.12 mph56%29.92 "Hg10 mi
10:55 PM66 °FPartly cloudy.12 mph60%29.92 "Hg10 mi
10:35 PM66 °FPassing clouds.9 mph64%29.91 "Hg10 mi
10:15 PM66 °FPassing clouds.10 mph64%29.91 "Hg10 mi
9:55 PM66 °FPassing clouds.12 mph64%29.91 "Hg10 mi
9:35 PM64 °FClear.10 mph73%29.91 "Hg10 mi
9:15 PM64 °FClear.9 mph73%29.91 "Hg10 mi
8:35 PM64 °FClear.7 mph73%29.93 "Hg10 mi
7:55 PM64 °FPassing clouds.8 mph73%29.93 "Hg10 mi
7:15 PM64 °FMostly cloudy.7 mph68%29.93 "Hg10 mi
6:55 PM64 °FPassing clouds.9 mph68%29.93 "Hg10 mi
6:15 PM64 °FClear.12 mph64%29.93 "Hg10 mi
5:15 PM66 °FScattered clouds.13 mph56%29.96 "Hg10 mi
4:55 PM68 °FScattered clouds.10 mph53%29.96 "Hg10 mi
4:15 PM68 °FScattered clouds.14 mph46%29.97 "Hg10 mi
3:55 PM68 °FScattered clouds.12 mph46%29.96 "Hg10 mi
3:35 PM68 °FScattered clouds.13 mph46%29.97 "Hg10 mi
3:15 PM68 °FScattered clouds.13 mph46%29.97 "Hg10 mi
2:55 PM64 °FScattered clouds.7 mph68%29.98 "Hg10 mi
2:35 PM66 °FScattered clouds.15 mph64%29.99 "Hg10 mi
2:15 PM66 °FScattered clouds.14 mph64%30.00 "Hg10 mi
1:55 PM64 °FPartly sunny.13 mph64%30.01 "Hg10 mi
1:35 PM64 °FPartly sunny.13 mph64%30.02 "Hg10 mi
1:15 PM63 °FBroken clouds.13 mph64%30.03 "Hg10 mi
12:55 PM64 °FSunny.12 mph60%30.05 "Hg10 mi
12:35 PM64 °FSunny.13 mph60%30.06 "Hg10 mi
12:15 PM64 °FSunny.12 mph56%30.07 "Hg10 mi
11:55 AM64 °FSunny.13 mph56%30.09 "Hg10 mi
11:35 AM63 °FSunny.10 mph56%30.10 "Hg10 mi
11:15 AM63 °FSunny.9 mph56%30.11 "Hg10 mi
10:55 AM63 °FSunny.10 mph56%30.11 "Hg10 mi
10:35 AM59 °FSunny.9 mph63%30.11 "Hg10 mi
10:15 AM61 °FSunny.9 mph59%30.12 "Hg10 mi
9:55 AM59 °FSunny.7 mph68%30.12 "Hg10 mi
9:15 AM55 °FScattered clouds.8 mph82%30.11 "Hg10 mi
8:55 AM55 °FSunny.6 mph82%30.11 "Hg10 mi
8:35 AM55 °FSunny.3 mph82%30.10 "Hg10 mi
8:15 AM54 °FSunny.6 mph88%30.10 "Hg10 mi
7:55 AM50 °FSunny.No wind88%30.10 "Hg10 mi
7:35 AM46 °FSunny.No wind100%30.10 "Hg10 mi
7:15 AM46 °FSunny.No wind100%30.10 "Hg10 mi
6:55 AM46 °FClear.No wind93%30.09 "Hg10 mi
6:35 AM46 °FClear.No wind93%30.09 "Hg10 mi
6:15 AM46 °FClear.No wind93%30.09 "Hg10 mi
5:55 AM45 °FClear.No wind100%30.08 "Hg10 mi
5:35 AM46 °FClear.No wind93%30.07 "Hg10 mi
5:15 AM46 °FClear.No wind93%30.07 "Hg10 mi
4:55 AM46 °FClear.No wind93%30.07 "Hg10 mi
4:35 AM46 °FClear.No wind93%30.07 "Hg10 mi
4:15 AM46 °FClear.No wind87%30.06 "Hg10 mi
3:55 AM46 °FClear.No wind87%30.06 "Hg10 mi
3:35 AM46 °FClear.No wind93%30.07 "Hg10 mi
3:15 AM46 °FClear.No wind87%30.07 "Hg10 mi
Weather by CustomWeather, © 2016

See weather overviewHow to use our weather pages